STARLINK-3880, 52334

Orbit data source: Space-Track

STARLINK-3880, 52334 is a payload satellite owned by SpaceX/Seattle (US) in LEO that was launched on Fri, 29 Apr 2022 UTC via an FALCON 9 launch vehicle from the Air Force Eastern Test Range (AFETR). Payload-class satellites include a variety of spacecraft equipped with specific instruments for various scientific and technological missions. These include communications satellites like Starlink; space stations such as the ISS; scientific satellites like the Hubble; Earth observation satellites from companies like Planet Labs, Umbra, and HawkEye 360; GPS; miniature CubeSats for education and research; and military/defense satellites.

Loading next visibility...
Identifier
52334, 2022-045D
Orbit
LEO
Country
Flag of USUS
Related business
Manufacturer
SpaceX/Seattle
Mission
Operational Commercial Communications
Bus & Motor
STARLINK, Unknown motor
Mass
297 kg wet, ~275 kg dry
Launch date (UTC)
2022-04-29 (4 years ago)
Launch vehicle
FALCON 9
Launch site
Air Force Eastern Test Range (AFETR)
Object type
Payload
Rocket body
Debris
Shape & HBR
Box + 1 Pan, 10.1 m
Radar Cross Section
11.087 m², Large (>1 m²)

Expand to show TLE details & history
Last TLE update: 8 hours ago

TLE from 8 hours ago
0 STARLINK-3880
1 52334U 22045D   26119.84741379  .00000586  00000-0  54922-4 0  9997
2 52334  53.2183 339.4618 0001539  80.2721 279.8445 15.08844700223354
Epoch: 2026-04-29T20:20Z
TLE epoch observation values (Epoch: 2026-04-29T20:20:16.551Z)
Latitude
-0.00002°
Longitude
176.59033°
Altitude
540.445 km
Speed
7.593 km/s
True Right ascension
22h 37m 50s
True Declination
0° 00' 00"
Sunlit
Object was in daylight at epoch
Visualization orbit readout
Latitude
Unknown
Longitude
Unknown
Altitude
Unknown
Speed
Unknown
Apparent Right ascension
Unknown
Apparent Declination
Unknown
Sunlit
N/A
Visualization observer readout
Local Sidereal Time
12:09:15
Azimuth
Unknown
Elevation
Unknown
Doppler factor
Unknown
Orbital elements
Apogee altitude
541.039 km
Perigee altitude
538.909 km
Semi-major axis
6,918.111 km
Eccentricity
0.00015
Inclination
53.2183°
RAAN
339.4618°
Arg. of periapsis
80.2721°
True anomaly
279.82712°
Mean anomaly
279.8445°
Eccentric anomaly
279.83581°
Mean motion
3.77192 °/min
Orbital period
95.44 mins
BSTAR
0.000054922
Loading maneuver chart data...
Computing Atmospheric mass density...
Loading historical data...
Loading historical data...
Loading historical data...
Loading historical data...
Loading historical data...
Loading historical data...
Loading historical data...

Documentation

Showing up to 5 results
|